Location: Eymir
(36.7333°N, 29.7833°E)
Time: 00:50:31
(UTC+00:00)

VELOX 1 - Pass Details

Date: 22 May 2026
Orbit: 569 x 578 km, 98.3° (Epoch: 10 June)

Event Time Altitude Azimuth Distance (km) Brightness Sun altitude
Rises 21:27:48 0° 11° (N) 2,795 ? -32.3°
Reaches altitude 10° 21:29:58 10° 10° (N) 1,893 ? -32.4°
Enters shadow 21:31:35 23° 8° (N) 1,243 ? -32.4°
